Page, AZ

1:23 PM MST on December 06, 2016 (GMT -0700)
Page Municipal

Weather History for KPGA - September, 2013

Change the Weather History Date:

Tuesday, September 10, 2013

  Actual Average Record
Temperature  
Mean Temperature 71 °F -  
Max Temperature 79 °F 88 °F 98 °F (1990)
Min Temperature 63 °F 62 °F 52 °F (1962)
Cooling Degree Days 6    
Growing Degree Days 21 (Base 50)    
Moisture  
Dew Point 60 °F    
Average Humidity 83    
Maximum Humidity 94    
Minimum Humidity 52    
Precipitation  
Precipitation 0.51 in - - ()
Sea Level Pressure  
Sea Level Pressure 29.86 in    
Wind  
Wind Speed 5 mph (NNW)    
Max Wind Speed 15 mph    
Max Gust Speed 24 mph    
Visibility 9 miles    
Events Rain , Thunderstorm    
Averages and records for this station are not official NWS values.
T = Trace of Precipitation, MM = Missing Value Source: NWS Daily Summary

Daily Weather History Graph

Daily Weather History Graph

Search for Another Location

Airport or City:

Trip Planner

Search our weather history database for the weather conditions in past years. The results will help you decide how hot, cold, wet, or windy it might be!

Date:

Astronomy

Sep. 10, 2013 Rise Set
Actual Time 6:04 AM MST 6:40 PM MST
Civil Twilight 5:38 AM MST 7:06 PM MST
Nautical Twilight 5:07 AM MST 7:37 PM MST
Astronomical Twilight 4:35 AM MST 8:08 PM MST
Moon 11:24 AM MST (9/10) 9:55 PM MST (9/10)
Length of Visible Light 13h 28m
Length of Day
12h 36m
Waxing Crescent, 29% of the Moon is Illuminated
Sep 10
Waxing Crescent
Sep 12
First Quarter
Sep 19
Full
Sep 26
Last Quarter
Oct 4
New

Hourly Weather History & Observations

Time (MST) Temp. Dew Point Humidity Pressure Visibility Wind Dir Wind Speed Gust Speed Precip Events Conditions
12:17 AM 62.6 °F 60.8 °F 94% 29.94 in 10.0 mi NE 9.2 mph - 0.00 in   Overcast
12:53 AM 63.0 °F 60.1 °F 90% 29.80 in 10.0 mi ENE 5.8 mph - 0.00 in   Overcast
1:10 AM 62.6 °F 60.8 °F 94% 29.95 in 10.0 mi ENE 5.8 mph - N/A   Overcast
1:53 AM 63.0 °F 61.0 °F 93% 29.80 in 10.0 mi NNE 4.6 mph - N/A   Overcast
2:12 AM 62.6 °F 60.8 °F 94% 29.94 in 10.0 mi North 4.6 mph - N/A   Overcast
2:30 AM 62.6 °F 60.8 °F 94% 29.94 in 10.0 mi North 3.5 mph - N/A   Overcast
2:53 AM 63.0 °F 60.1 °F 90% 29.78 in 10.0 mi Calm Calm - N/A   Overcast
3:53 AM 63.0 °F 60.1 °F 90% 29.78 in 10.0 mi Calm Calm - N/A   Overcast
4:13 AM 62.6 °F 60.8 °F 94% 29.93 in 10.0 mi Calm Calm - N/A   Overcast
4:26 AM 62.6 °F 60.8 °F 94% 29.93 in 10.0 mi Calm Calm - N/A   Overcast
4:53 AM 63.0 °F 60.1 °F 90% 29.79 in 10.0 mi Calm Calm - N/A   Overcast
5:49 AM 62.6 °F 60.8 °F 94% 29.94 in 10.0 mi Calm Calm - N/A   Overcast
5:53 AM 63.0 °F 61.0 °F 93% 29.79 in 10.0 mi Calm Calm - N/A   Overcast
6:05 AM 62.6 °F 60.8 °F 94% 29.94 in 10.0 mi Calm Calm - N/A   Overcast
6:53 AM 64.0 °F 60.1 °F 87% 29.81 in 9.0 mi Calm Calm - 0.00 in Rain Light Rain
7:53 AM 64.9 °F 62.1 °F 90% 29.83 in 10.0 mi NNE 4.6 mph - 0.00 in   Overcast
8:53 AM 64.9 °F 59.0 °F 81% 29.83 in 10.0 mi SE 4.6 mph - N/A   Overcast
9:53 AM 66.0 °F 59.0 °F 78% 29.84 in 10.0 mi Variable 3.5 mph - N/A   Overcast
10:53 AM 70.0 °F 62.1 °F 76% 29.83 in 10.0 mi West 4.6 mph - N/A   Overcast
11:53 AM 73.9 °F 59.0 °F 59% 29.81 in 10.0 mi Calm Calm - N/A   Partly Cloudy
12:53 PM 75.9 °F 59.0 °F 56% 29.79 in 10.0 mi NNE 5.8 mph - N/A   Scattered Clouds
1:53 PM 77.0 °F 57.9 °F 52% 29.78 in 10.0 mi North 5.8 mph - N/A   Mostly Cloudy
2:53 PM 75.9 °F 57.0 °F 52% 29.76 in 10.0 mi NNE 5.8 mph - N/A   Scattered Clouds
3:45 PM 71.6 °F 62.6 °F 73% 29.92 in 3.0 mi NW 9.2 mph - 0.03 in Rain , Thunderstorm Rain
3:53 PM 71.1 °F 62.1 °F 73% 29.77 in 10.0 mi WNW 5.8 mph - 0.03 in Rain , Thunderstorm Light Rain
4:04 PM 71.6 °F 62.6 °F 73% 29.92 in 10.0 mi WNW 6.9 mph - 0.00 in Thunderstorm Scattered Clouds
4:39 PM 66.2 °F 60.8 °F 83% 29.95 in 1.5 mi WSW 15.0 mph 24.2 mph 0.02 in Rain , Thunderstorm Rain
4:53 PM 64.9 °F 59.0 °F 81% 29.83 in 0.5 mi West 11.5 mph 17.3 mph 0.48 in Rain , Thunderstorm Thunderstorms and Rain
4:56 PM 64.4 °F 59.0 °F 83% 29.96 in 2.5 mi West 8.1 mph 17.3 mph 0.00 in Rain , Thunderstorm Light Thunderstorms and Rain
5:03 PM 64.4 °F 59.0 °F 83% 29.97 in 10.0 mi West 6.9 mph - 0.00 in Thunderstorm Thunderstorm
5:37 PM 64.4 °F 59.0 °F 83% 29.96 in 10.0 mi WNW 8.1 mph - 0.00 in   Partly Cloudy
5:53 PM 64.9 °F 59.0 °F 81% 29.83 in 10.0 mi WNW 6.9 mph - 0.00 in   Clear
6:53 PM 64.0 °F 60.1 °F 87% 29.86 in 10.0 mi NE 5.8 mph - N/A   Clear
7:53 PM 64.9 °F 59.0 °F 81% 29.88 in 10.0 mi Calm Calm - N/A   Overcast
8:53 PM 64.9 °F 60.1 °F 84% 29.89 in 10.0 mi Calm Calm - N/A   Overcast
9:53 PM 64.9 °F 60.1 °F 84% 29.89 in 10.0 mi Calm Calm - N/A   Overcast
10:53 PM 64.0 °F 60.1 °F 87% 29.89 in 10.0 mi Calm Calm - 0.02 in Rain Light Rain
11:53 PM 64.0 °F 60.1 °F 87% 29.88 in 10.0 mi West 3.5 mph - 0.01 in   Overcast